Time,TemperatureF,DewpointF,PressureIn,WindDirection,WindDirectionDegrees,WindSpeedMPH,WindSpeedGustMPH,Humidity,HourlyPrecipIn,Conditions,Clouds,dailyrainin,SoftwareType,DateUTC
2013-01-21 00:02:00,51.6,46.3,30.13,SSE,148,0.0,0.0,82,0.00,,---,0.00,VWS V14.01,2013-01-21 06:02:00,
2013-01-21 00:07:00,51.3,46.3,30.13,SSE,148,0.0,0.0,83,0.00,,---,0.00,VWS V14.01,2013-01-21 06:07:00,
2013-01-21 00:12:00,51.1,45.8,30.12,SSE,148,0.0,0.0,82,0.00,,---,0.00,VWS V14.01,2013-01-21 06:12:00,
2013-01-21 00:17:00,50.8,45.8,30.12,SSE,148,0.0,0.0,83,0.00,,---,0.00,VWS V14.01,2013-01-21 06:17:00,
2013-01-21 00:22:00,50.8,46.2,30.12,SSE,148,0.0,0.0,84,0.00,,---,0.00,VWS V14.01,2013-01-21 06:22:00,
2013-01-21 00:27:00,51.2,46.5,30.12,SSE,148,0.0,0.0,84,0.00,,---,0.00,VWS V14.01,2013-01-21 06:27:00,
2013-01-21 00:32:00,51.4,46.7,30.12,SSE,148,0.0,0.0,84,0.00,,---,0.00,VWS V14.01,2013-01-21 06:32:00,
2013-01-21 00:37:00,51.5,46.5,30.12,SSE,148,0.0,0.0,83,0.00,,---,0.00,VWS V14.01,2013-01-21 06:37:00,
2013-01-21 00:42:00,51.5,46.8,30.12,SSE,148,0.0,0.0,84,0.00,,---,0.00,VWS V14.01,2013-01-21 06:42:00,
2013-01-21 00:47:00,51.4,46.7,30.12,SSE,148,0.0,0.0,84,0.00,,---,0.00,VWS V14.01,2013-01-21 06:47:00,
2013-01-21 00:52:00,51.4,47.0,30.12,SSE,148,0.0,0.0,85,0.00,,---,0.00,VWS V14.01,2013-01-21 06:52:00,
2013-01-21 00:57:00,51.8,47.1,30.12,SSE,148,0.0,0.0,84,0.00,,---,0.00,VWS V14.01,2013-01-21 06:57:00,
2013-01-21 01:02:00,51.6,46.6,30.12,SSE,148,0.0,0.0,83,0.00,,---,0.00,VWS V14.01,2013-01-21 07:02:00,
2013-01-21 01:07:00,51.3,46.6,30.12,SSE,148,0.0,0.0,84,0.00,,---,0.00,VWS V14.01,2013-01-21 07:07:00,
2013-01-21 01:12:00,51.1,46.8,30.12,SSE,148,0.0,0.0,85,0.00,,---,0.00,VWS V14.01,2013-01-21 07:12:00,
2013-01-21 01:17:00,51.4,47.0,30.12,SSE,148,0.0,0.0,85,0.00,,---,0.00,VWS V14.01,2013-01-21 07:17:00,
2013-01-21 01:22:00,51.4,47.0,30.12,SSE,148,0.0,0.0,85,0.00,,---,0.00,VWS V14.01,2013-01-21 07:22:00,
2013-01-21 01:27:00,51.8,47.1,30.12,SSE,148,0.0,0.0,84,0.00,,---,0.00,VWS V14.01,2013-01-21 07:27:00,
2013-01-21 01:32:00,51.8,47.4,30.12,SSE,148,0.0,0.0,85,0.00,,---,0.00,VWS V14.01,2013-01-21 07:32:00,
2013-01-21 01:37:00,52.0,47.6,30.12,SSE,148,0.0,0.0,85,0.00,,---,0.00,VWS V14.01,2013-01-21 07:37:00,
2013-01-21 01:42:00,51.9,47.2,30.12,SSE,148,0.0,0.0,84,0.00,,---,0.00,VWS V14.01,2013-01-21 07:42:00,
2013-01-21 01:47:00,51.5,47.2,30.12,SSE,148,0.0,0.0,85,0.00,,---,0.00,VWS V14.01,2013-01-21 07:47:00,
2013-01-21 01:52:00,51.7,47.7,30.12,SSE,148,0.0,0.0,86,0.00,,---,0.00,VWS V14.01,2013-01-21 07:52:00,
2013-01-21 01:57:00,51.8,47.8,30.12,SSE,148,0.0,0.0,86,0.00,,---,0.00,VWS V14.01,2013-01-21 07:57:00,
2013-01-21 02:02:00,51.6,47.2,30.12,SSE,148,0.0,0.0,85,0.00,,---,0.00,VWS V14.01,2013-01-21 08:02:00,
2013-01-21 02:07:00,51.2,47.2,30.12,SSE,149,0.0,0.0,86,0.00,,---,0.00,VWS V14.01,2013-01-21 08:07:00,
2013-01-21 02:12:00,51.4,48.0,30.12,SSE,149,0.0,0.0,88,0.00,,---,0.00,VWS V14.01,2013-01-21 08:12:00,
2013-01-21 02:17:00,51.8,47.8,30.12,SSE,149,0.0,0.0,86,0.00,,---,0.00,VWS V14.01,2013-01-21 08:17:00,
2013-01-21 02:22:00,51.6,47.9,30.12,SSE,149,0.0,0.0,87,0.00,,---,0.00,VWS V14.01,2013-01-21 08:22:00,
2013-01-21 02:27:00,51.3,47.9,30.12,SSE,149,0.0,0.0,88,0.00,,---,0.00,VWS V14.01,2013-01-21 08:27:00,
2013-01-21 02:32:00,51.4,48.0,30.12,SSE,149,0.0,0.0,88,0.00,,---,0.00,VWS V14.01,2013-01-21 08:32:00,
2013-01-21 02:37:00,51.6,47.9,30.12,SSE,149,0.0,0.0,87,0.00,,---,0.00,VWS V14.01,2013-01-21 08:37:00,
2013-01-21 02:42:00,51.2,47.8,30.12,SSE,149,0.0,0.0,88,0.00,,---,0.00,VWS V14.01,2013-01-21 08:42:00,
2013-01-21 02:47:00,51.0,47.3,30.12,SSE,148,0.0,0.0,87,0.00,,---,0.00,VWS V14.01,2013-01-21 08:47:00,
2013-01-21 02:52:00,50.8,47.4,30.12,SSE,149,0.0,0.0,88,0.00,,---,0.00,VWS V14.01,2013-01-21 08:52:00,
2013-01-21 02:57:00,51.0,48.2,30.12,SSE,149,0.0,0.0,90,0.00,,---,0.00,VWS V14.01,2013-01-21 08:57:00,
2013-01-21 03:02:00,51.0,47.9,30.12,SSE,149,0.0,0.0,89,0.00,,---,0.00,VWS V14.01,2013-01-21 09:02:00,
2013-01-21 03:07:00,50.8,47.4,30.12,SSE,149,0.0,0.0,88,0.00,,---,0.00,VWS V14.01,2013-01-21 09:07:00,
2013-01-21 03:12:00,50.6,47.8,30.12,SSE,149,0.0,0.0,90,0.00,,---,0.00,VWS V14.01,2013-01-21 09:12:00,
2013-01-21 03:17:00,50.3,47.5,30.12,SSE,149,0.0,0.0,90,0.00,,---,0.00,VWS V14.01,2013-01-21 09:17:00,
2013-01-21 03:22:00,50.3,47.5,30.12,SSE,149,0.0,0.0,90,0.00,,---,0.00,VWS V14.01,2013-01-21 09:22:00,
2013-01-21 03:27:00,50.1,47.6,30.11,SSE,149,0.0,0.0,91,0.00,,---,0.00,VWS V14.01,2013-01-21 09:27:00,
2013-01-21 03:32:00,49.9,47.4,30.11,SSE,149,0.0,0.0,91,0.00,,---,0.00,VWS V14.01,2013-01-21 09:32:00,
2013-01-21 03:37:00,50.1,47.9,30.11,SSE,149,0.0,0.0,92,0.00,,---,0.00,VWS V14.01,2013-01-21 09:37:00,
2013-01-21 03:42:00,50.4,48.2,30.11,SSE,148,0.0,0.0,92,0.00,,---,0.00,VWS V14.01,2013-01-21 09:42:00,
2013-01-21 03:47:00,50.6,48.1,30.11,SSE,149,0.0,0.0,91,0.00,,---,0.00,VWS V14.01,2013-01-21 09:47:00,
2013-01-21 03:52:00,50.7,48.2,30.11,SSE,149,0.0,0.0,91,0.00,,---,0.00,VWS V14.01,2013-01-21 09:52:00,
2013-01-21 03:57:00,50.6,47.8,30.11,SSE,148,0.0,0.0,90,0.00,,---,0.00,VWS V14.01,2013-01-21 09:57:00,
2013-01-21 04:02:00,50.4,47.9,30.11,SSE,149,0.0,0.0,91,0.00,,---,0.00,VWS V14.01,2013-01-21 10:02:00,
2013-01-21 04:07:00,50.6,48.4,30.11,SSE,149,0.0,0.0,92,0.00,,---,0.00,VWS V14.01,2013-01-21 10:07:00,
2013-01-21 04:12:00,50.6,48.1,30.11,SSE,149,0.0,0.0,91,0.00,,---,0.00,VWS V14.01,2013-01-21 10:12:00,
2013-01-21 04:17:00,50.2,47.4,30.11,SSE,149,0.0,0.0,90,0.00,,---,0.00,VWS V14.01,2013-01-21 10:17:00,
2013-01-21 04:22:00,50.0,47.8,30.11,SSE,148,0.0,0.0,92,0.00,,---,0.00,VWS V14.01,2013-01-21 10:22:00,
2013-01-21 04:27:00,49.9,47.4,30.11,SSE,149,0.0,0.0,91,0.00,,---,0.00,VWS V14.01,2013-01-21 10:27:00,
2013-01-21 04:32:00,49.5,47.0,30.11,SSE,148,0.0,0.0,91,0.00,,---,0.00,VWS V14.01,2013-01-21 10:32:00,
2013-01-21 04:37:00,49.3,47.1,30.11,SSE,153,0.0,0.0,92,0.00,,---,0.00,VWS V14.01,2013-01-21 10:37:00,
2013-01-21 04:42:00,49.2,47.0,30.12,North,353,1.0,1.0,92,0.00,,---,0.00,VWS V14.01,2013-01-21 10:42:00,
2013-01-21 04:47:00,49.1,46.9,30.12,North,353,0.0,1.0,92,0.00,,---,0.00,VWS V14.01,2013-01-21 10:47:00,
2013-01-21 04:52:00,48.8,46.6,30.12,NNW,338,0.0,1.0,92,0.00,,---,0.00,VWS V14.01,2013-01-21 10:52:00,
2013-01-21 04:57:00,48.7,46.5,30.12,NNW,338,0.0,1.0,92,0.00,,---,0.00,VWS V14.01,2013-01-21 10:57:00,
2013-01-21 05:02:00,48.5,46.6,30.12,NNW,332,0.0,1.0,93,0.00,,---,0.00,VWS V14.01,2013-01-21 11:02:00,
2013-01-21 05:07:00,48.4,46.2,30.12,NNW,342,0.0,1.0,92,0.00,,---,0.00,VWS V14.01,2013-01-21 11:07:00,
2013-01-21 05:12:00,48.4,46.2,30.12,NNW,335,1.0,1.0,92,0.00,,---,0.00,VWS V14.01,2013-01-21 11:12:00,
2013-01-21 05:17:00,48.2,46.0,30.12,NNW,346,0.0,1.0,92,0.00,,---,0.00,VWS V14.01,2013-01-21 11:17:00,
2013-01-21 05:22:00,48.1,45.9,30.12,North,352,0.0,2.0,92,0.00,,---,0.00,VWS V14.01,2013-01-21 11:22:00,
2013-01-21 05:27:00,48.0,45.8,30.12,NNW,340,1.0,2.0,92,0.00,,---,0.00,VWS V14.01,2013-01-21 11:27:00,
2013-01-21 05:32:00,47.9,45.7,30.12,NNW,338,1.0,1.0,92,0.00,,---,0.00,VWS V14.01,2013-01-21 11:32:00,
2013-01-21 05:37:00,47.9,46.0,30.12,NW,323,0.0,2.0,93,0.00,,---,0.00,VWS V14.01,2013-01-21 11:37:00,
2013-01-21 05:42:00,47.8,45.9,30.12,North,5,0.0,2.0,93,0.00,,---,0.00,VWS V14.01,2013-01-21 11:42:00,
2013-01-21 05:47:00,47.8,45.9,30.12,NNW,332,1.0,2.0,93,0.00,,---,0.00,VWS V14.01,2013-01-21 11:47:00,
2013-01-21 05:52:00,47.9,46.0,30.12,NNE,23,1.0,2.0,93,0.00,,---,0.00,VWS V14.01,2013-01-21 11:52:00,
2013-01-21 05:57:00,48.0,46.1,30.12,NNW,342,1.0,2.0,93,0.00,,---,0.00,VWS V14.01,2013-01-21 11:57:00,
2013-01-21 06:02:00,48.0,46.1,30.13,NNW,338,1.0,2.0,93,0.00,,---,0.00,VWS V14.01,2013-01-21 12:02:00,
2013-01-21 06:07:00,48.1,46.2,30.13,NNW,328,1.0,2.0,93,0.00,,---,0.00,VWS V14.01,2013-01-21 12:07:00,
2013-01-21 06:12:00,48.1,45.9,30.13,NNW,340,0.0,2.0,92,0.00,,---,0.00,VWS V14.01,2013-01-21 12:12:00,
2013-01-21 06:17:00,48.0,46.1,30.13,NNW,338,0.0,2.0,93,0.00,,---,0.00,VWS V14.01,2013-01-21 12:17:00,
2013-01-21 06:22:00,47.9,46.0,30.13,NNW,338,1.0,2.0,93,0.00,,---,0.00,VWS V14.01,2013-01-21 12:22:00,
2013-01-21 06:27:00,47.9,46.0,30.13,North,356,0.0,2.0,93,0.00,,---,0.00,VWS V14.01,2013-01-21 12:27:00,
2013-01-21 06:32:00,47.9,46.0,30.13,NW,323,0.0,1.0,93,0.00,,---,0.00,VWS V14.01,2013-01-21 12:32:00,
2013-01-21 06:37:00,47.9,46.0,30.13,NNW,330,1.0,1.0,93,0.00,,---,0.00,VWS V14.01,2013-01-21 12:37:00,
2013-01-21 06:42:00,48.0,46.1,30.13,NNW,344,1.0,1.0,93,0.00,,---,0.00,VWS V14.01,2013-01-21 12:42:00,
2013-01-21 06:47:00,48.1,46.2,30.14,NNW,330,1.0,1.0,93,0.00,,---,0.00,VWS V14.01,2013-01-21 12:47:00,
2013-01-21 06:52:00,48.4,46.5,30.14,NNW,331,0.0,2.0,93,0.00,,---,0.00,VWS V14.01,2013-01-21 12:52:00,
2013-01-21 06:57:00,48.3,46.1,30.14,NNW,331,0.0,2.0,92,0.00,,---,0.00,VWS V14.01,2013-01-21 12:57:00,
2013-01-21 07:02:00,48.2,46.3,30.14,NNW,337,0.0,1.0,93,0.00,,---,0.00,VWS V14.01,2013-01-21 13:02:00,
2013-01-21 07:07:00,48.2,46.3,30.15,NNW,336,0.0,1.0,93,0.00,,---,0.00,VWS V14.01,2013-01-21 13:07:00,
2013-01-21 07:12:00,48.1,46.2,30.15,North,350,0.0,1.0,93,0.00,,---,0.00,VWS V14.01,2013-01-21 13:12:00,
2013-01-21 07:17:00,48.2,46.3,30.15,NNW,346,0.0,1.0,93,0.00,,---,0.00,VWS V14.01,2013-01-21 13:17:00,
2013-01-21 07:22:00,48.2,46.3,30.15,NNW,342,0.0,1.0,93,0.00,,---,0.00,VWS V14.01,2013-01-21 13:22:00,
2013-01-21 07:27:00,48.3,46.4,30.16,NNW,345,0.0,1.0,93,0.00,,---,0.00,VWS V14.01,2013-01-21 13:27:00,
2013-01-21 07:32:00,48.4,46.5,30.16,NNW,345,0.0,1.0,93,0.00,,---,0.00,VWS V14.01,2013-01-21 13:32:00,
2013-01-21 07:37:00,48.3,46.4,30.16,NNW,333,1.0,1.0,93,0.00,,---,0.00,VWS V14.01,2013-01-21 13:37:00,
2013-01-21 07:42:00,48.4,46.5,30.16,North,354,0.0,1.0,93,0.00,,---,0.00,VWS V14.01,2013-01-21 13:42:00,
2013-01-21 07:47:00,48.5,46.6,30.16,NW,323,0.0,1.0,93,0.00,,---,0.00,VWS V14.01,2013-01-21 13:47:00,
2013-01-21 07:52:00,48.6,46.7,30.17,NW,325,0.0,1.0,93,0.00,,---,0.00,VWS V14.01,2013-01-21 13:52:00,
2013-01-21 07:57:00,48.7,46.8,30.17,NNW,347,1.0,1.0,93,0.00,,---,0.00,VWS V14.01,2013-01-21 13:57:00,
2013-01-21 08:02:00,48.8,46.9,30.17,NNW,344,0.0,1.0,93,0.00,,---,0.00,VWS V14.01,2013-01-21 14:02:00,
2013-01-21 08:07:00,48.9,47.0,30.17,NNW,335,0.0,1.0,93,0.00,,---,0.00,VWS V14.01,2013-01-21 14:07:00,
2013-01-21 08:12:00,49.2,47.3,30.17,NNW,338,0.0,1.0,93,0.00,,---,0.00,VWS V14.01,2013-01-21 14:12:00,
2013-01-21 08:17:00,49.6,47.7,30.17,NNW,338,0.0,1.0,93,0.00,,---,0.00,VWS V14.01,2013-01-21 14:17:00,
2013-01-21 08:22:00,50.3,48.4,30.18,NNW,338,0.0,1.0,93,0.00,,---,0.00,VWS V14.01,2013-01-21 14:22:00,
2013-01-21 08:27:00,51.5,49.5,30.18,NNW,338,0.0,1.0,93,0.00,,---,0.00,VWS V14.01,2013-01-21 14:27:00,
2013-01-21 08:32:00,53.3,50.7,30.18,West,280,0.0,1.0,91,0.00,,---,0.00,VWS V14.01,2013-01-21 14:32:00,
2013-01-21 08:37:00,54.7,51.2,30.18,West,280,1.0,1.0,88,0.00,,---,0.00,VWS V14.01,2013-01-21 14:37:00,
2013-01-21 08:42:00,55.6,51.2,30.19,West,280,0.0,1.0,85,0.00,,---,0.00,VWS V14.01,2013-01-21 14:42:00,
2013-01-21 08:47:00,56.1,51.3,30.19,WSW,243,0.0,1.0,84,0.00,,---,0.00,VWS V14.01,2013-01-21 14:47:00,
2013-01-21 08:52:00,56.6,51.8,30.19,WSW,243,0.0,1.0,84,0.00,,---,0.00,VWS V14.01,2013-01-21 14:52:00,
2013-01-21 08:57:00,57.3,52.2,30.19,WSW,243,0.0,1.0,83,0.00,,---,0.00,VWS V14.01,2013-01-21 14:57:00,
2013-01-21 09:02:00,57.9,52.5,30.19,WSW,245,0.0,1.0,82,0.00,,---,0.00,VWS V14.01,2013-01-21 15:02:00,
2013-01-21 09:07:00,58.1,52.6,30.19,WSW,248,0.0,1.0,82,0.00,,---,0.00,VWS V14.01,2013-01-21 15:07:00,
2013-01-21 09:12:00,58.2,52.4,30.19,WSW,250,0.0,1.0,81,0.00,,---,0.00,VWS V14.01,2013-01-21 15:12:00,
2013-01-21 09:17:00,58.1,52.6,30.19,WSW,250,0.0,1.0,82,0.00,,---,0.00,VWS V14.01,2013-01-21 15:17:00,
2013-01-21 09:22:00,58.5,53.0,30.19,SW,236,0.0,1.0,82,0.00,,---,0.00,VWS V14.01,2013-01-21 15:22:00,
2013-01-21 09:27:00,58.8,53.0,30.20,SW,236,0.0,1.0,81,0.00,,---,0.00,VWS V14.01,2013-01-21 15:27:00,
2013-01-21 09:32:00,59.3,53.1,30.20,WSW,245,0.0,1.0,80,0.00,,---,0.00,VWS V14.01,2013-01-21 15:32:00,
2013-01-21 09:37:00,60.0,54.2,30.20,South,176,0.0,1.0,81,0.00,,---,0.00,VWS V14.01,2013-01-21 15:37:00,
2013-01-21 09:42:00,60.7,53.8,30.20,West,280,2.0,2.0,78,0.00,,---,0.00,VWS V14.01,2013-01-21 15:42:00,
2013-01-21 09:47:00,61.0,53.4,30.20,SW,214,1.0,2.0,76,0.00,,---,0.00,VWS V14.01,2013-01-21 15:47:00,
2013-01-21 09:52:00,61.1,53.8,30.21,SW,215,0.0,2.0,77,0.00,,---,0.00,VWS V14.01,2013-01-21 15:52:00,
2013-01-21 09:57:00,61.4,53.8,30.21,SSW,212,2.0,2.0,76,0.00,,---,0.00,VWS V14.01,2013-01-21 15:57:00,
2013-01-21 10:02:00,61.6,54.3,30.21,SSW,205,0.0,2.0,77,0.00,,---,0.00,VWS V14.01,2013-01-21 16:02:00,
2013-01-21 10:07:00,62.1,53.7,30.21,East,99,2.0,2.0,74,0.00,,---,0.00,VWS V14.01,2013-01-21 16:07:00,
2013-01-21 10:12:00,62.5,53.7,30.21,SSW,204,1.0,4.0,73,0.00,,---,0.00,VWS V14.01,2013-01-21 16:12:00,
2013-01-21 10:17:00,62.2,53.8,30.21,SSE,158,1.0,4.0,74,0.00,,---,0.00,VWS V14.01,2013-01-21 16:17:00,
2013-01-21 10:22:00,62.5,53.7,30.21,SSW,193,0.0,4.0,73,0.00,,---,0.00,VWS V14.01,2013-01-21 16:22:00,
2013-01-21 10:27:00,63.2,54.0,30.21,SW,217,3.0,4.0,72,0.00,,---,0.00,VWS V14.01,2013-01-21 16:27:00,
2013-01-21 10:32:00,63.9,54.3,30.22,SW,232,1.0,2.0,71,0.00,,---,0.00,VWS V14.01,2013-01-21 16:32:00,
2013-01-21 10:37:00,64.6,54.6,30.22,SE,143,2.0,4.0,70,0.00,,---,0.00,VWS V14.01,2013-01-21 16:37:00,
2013-01-21 10:42:00,64.7,54.3,30.22,South,170,3.0,6.0,69,0.00,,---,0.00,VWS V14.01,2013-01-21 16:42:00,
2013-01-21 10:47:00,65.1,54.7,30.22,South,172,0.0,6.0,69,0.00,,---,0.00,VWS V14.01,2013-01-21 16:47:00,
2013-01-21 10:52:00,65.8,55.0,30.22,SW,221,3.0,6.0,68,0.00,,---,0.00,VWS V14.01,2013-01-21 16:52:00,
2013-01-21 10:57:00,66.0,55.2,30.22,SW,222,4.0,7.0,68,0.00,,---,0.00,VWS V14.01,2013-01-21 16:57:00,
2013-01-21 11:02:00,66.4,55.1,30.22,SE,133,4.0,6.0,67,0.00,,---,0.00,VWS V14.01,2013-01-21 17:02:00,
2013-01-21 11:07:00,66.7,55.0,30.22,SSE,164,2.0,6.0,66,0.00,,---,0.00,VWS V14.01,2013-01-21 17:07:00,
2013-01-21 11:12:00,67.2,55.0,30.21,SSE,160,0.0,6.0,65,0.00,,---,0.00,VWS V14.01,2013-01-21 17:12:00,
2013-01-21 11:17:00,68.3,56.1,30.21,SSE,168,0.0,6.0,65,0.00,,---,0.00,VWS V14.01,2013-01-21 17:17:00,
2013-01-21 11:22:00,68.3,56.1,30.21,SSW,212,0.0,6.0,65,0.00,,---,0.00,VWS V14.01,2013-01-21 17:22:00,
2013-01-21 11:27:00,67.5,55.3,30.21,SW,217,2.0,6.0,65,0.00,,---,0.00,VWS V14.01,2013-01-21 17:27:00,
2013-01-21 11:32:00,66.9,55.6,30.21,SSE,155,2.0,3.0,67,0.00,,---,0.00,VWS V14.01,2013-01-21 17:32:00,
2013-01-21 11:37:00,66.9,55.6,30.21,South,184,1.0,5.0,67,0.00,,---,0.00,VWS V14.01,2013-01-21 17:37:00,
2013-01-21 11:42:00,67.3,55.6,30.21,SW,229,0.0,5.0,66,0.00,,---,0.00,VWS V14.01,2013-01-21 17:42:00,
2013-01-21 11:47:00,67.5,55.8,30.21,SSW,197,1.0,5.0,66,0.00,,---,0.00,VWS V14.01,2013-01-21 17:47:00,
2013-01-21 11:52:00,67.7,56.0,30.20,SSW,210,1.0,5.0,66,0.00,,---,0.00,VWS V14.01,2013-01-21 17:52:00,
2013-01-21 11:57:00,67.3,55.2,30.20,WSW,251,1.0,7.0,65,0.00,,---,0.00,VWS V14.01,2013-01-21 17:57:00,
2013-01-21 12:02:00,67.0,55.3,30.20,SW,224,4.0,5.0,66,0.00,,---,0.00,VWS V14.01,2013-01-21 18:02:00,
2013-01-21 12:07:00,67.0,55.3,30.20,South,190,0.0,5.0,66,0.00,,---,0.00,VWS V14.01,2013-01-21 18:07:00,
2013-01-21 12:12:00,66.9,55.2,30.20,WSW,255,1.0,6.0,66,0.00,,---,0.00,VWS V14.01,2013-01-21 18:12:00,
2013-01-21 12:17:00,67.1,55.4,30.20,SW,214,4.0,6.0,66,0.00,,---,0.00,VWS V14.01,2013-01-21 18:17:00,
2013-01-21 12:22:00,67.0,55.3,30.20,SSW,201,0.0,6.0,66,0.00,,---,0.00,VWS V14.01,2013-01-21 18:22:00,
2013-01-21 12:27:00,67.4,55.2,30.19,SSW,212,3.0,6.0,65,0.00,,---,0.00,VWS V14.01,2013-01-21 18:27:00,
2013-01-21 12:32:00,67.8,56.0,30.19,SSW,201,2.0,6.0,66,0.00,,---,0.00,VWS V14.01,2013-01-21 18:32:00,
2013-01-21 12:37:00,68.9,55.8,30.19,SW,225,2.0,6.0,63,0.00,,---,0.00,VWS V14.01,2013-01-21 18:37:00,
2013-01-21 12:42:00,68.9,55.4,30.19,SSE,162,0.0,6.0,62,0.00,,---,0.00,VWS V14.01,2013-01-21 18:42:00,
2013-01-21 12:47:00,68.3,55.2,30.18,SW,229,2.0,7.0,63,0.00,,---,0.00,VWS V14.01,2013-01-21 18:47:00,
2013-01-21 12:52:00,68.4,54.9,30.18,SW,221,4.0,7.0,62,0.00,,---,0.00,VWS V14.01,2013-01-21 18:52:00,
2013-01-21 12:57:00,68.5,55.4,30.18,SE,136,2.0,7.0,63,0.00,,---,0.00,VWS V14.01,2013-01-21 18:57:00,
2013-01-21 13:02:00,69.0,55.5,30.17,SSW,204,3.0,5.0,62,0.00,,---,0.00,VWS V14.01,2013-01-21 19:02:00,
2013-01-21 13:07:00,69.0,55.0,30.17,SW,223,0.0,5.0,61,0.00,,---,0.00,VWS V14.01,2013-01-21 19:07:00,
2013-01-21 13:12:00,69.4,55.4,30.17,SSE,165,2.0,5.0,61,0.00,,---,0.00,VWS V14.01,2013-01-21 19:12:00,
2013-01-21 13:17:00,70.2,55.7,30.17,SSE,160,1.0,5.0,60,0.00,,---,0.00,VWS V14.01,2013-01-21 19:17:00,
2013-01-21 13:22:00,71.0,55.5,30.16,WSW,243,2.0,7.0,58,0.00,,---,0.00,VWS V14.01,2013-01-21 19:22:00,
2013-01-21 13:27:00,71.1,55.1,30.16,SE,132,1.0,8.0,57,0.00,,---,0.00,VWS V14.01,2013-01-21 19:27:00,
2013-01-21 13:32:00,71.5,55.5,30.16,SSW,194,5.0,6.0,57,0.00,,---,0.00,VWS V14.01,2013-01-21 19:32:00,
2013-01-21 13:37:00,71.3,54.8,30.15,SE,125,2.0,6.0,56,0.00,,---,0.00,VWS V14.01,2013-01-21 19:37:00,
2013-01-21 13:42:00,70.7,53.8,30.15,ENE,70,1.0,6.0,55,0.00,,---,0.00,VWS V14.01,2013-01-21 19:42:00,
2013-01-21 13:47:00,70.3,54.4,30.15,ENE,72,1.0,6.0,57,0.00,,---,0.00,VWS V14.01,2013-01-21 19:47:00,
2013-01-21 13:52:00,69.7,53.8,30.15,SSE,162,1.0,6.0,57,0.00,,---,0.00,VWS V14.01,2013-01-21 19:52:00,
2013-01-21 13:57:00,69.7,54.8,30.14,NE,36,0.0,6.0,59,0.00,,---,0.00,VWS V14.01,2013-01-21 19:57:00,
2013-01-21 14:02:00,70.9,54.4,30.14,WSW,238,1.0,5.0,56,0.00,,---,0.00,VWS V14.01,2013-01-21 20:02:00,
2013-01-21 14:07:00,71.6,54.6,30.14,SSW,203,2.0,5.0,55,0.00,,---,0.00,VWS V14.01,2013-01-21 20:07:00,
2013-01-21 14:12:00,72.8,54.7,30.14,SE,127,2.0,5.0,53,0.00,,---,0.00,VWS V14.01,2013-01-21 20:12:00,
2013-01-21 14:17:00,72.7,53.5,30.14,SSW,200,5.0,6.0,51,0.00,,---,0.00,VWS V14.01,2013-01-21 20:17:00,
2013-01-21 14:22:00,71.6,53.1,30.14,SW,214,3.0,6.0,52,0.00,,---,0.00,VWS V14.01,2013-01-21 20:22:00,
2013-01-21 14:27:00,71.8,53.2,30.14,SSW,193,2.0,6.0,52,0.00,,---,0.00,VWS V14.01,2013-01-21 20:27:00,
2013-01-21 14:32:00,71.4,52.9,30.14,SSW,208,2.0,6.0,52,0.00,,---,0.00,VWS V14.01,2013-01-21 20:32:00,
2013-01-21 14:37:00,71.2,52.7,30.14,ESE,115,0.0,6.0,52,0.00,,---,0.00,VWS V14.01,2013-01-21 20:37:00,
2013-01-21 14:42:00,70.9,52.4,30.14,SSW,204,1.0,6.0,52,0.00,,---,0.00,VWS V14.01,2013-01-21 20:42:00,
2013-01-21 14:47:00,70.3,52.4,30.14,East,95,0.0,6.0,53,0.00,,---,0.00,VWS V14.01,2013-01-21 20:47:00,
2013-01-21 14:52:00,70.3,51.3,30.14,North,11,2.0,6.0,51,0.00,,---,0.00,VWS V14.01,2013-01-21 20:52:00,
2013-01-21 14:57:00,70.9,50.8,30.14,WSW,252,0.0,6.0,49,0.00,,---,0.00,VWS V14.01,2013-01-21 20:57:00,
2013-01-21 15:02:00,71.7,51.5,30.13,NNE,24,0.0,6.0,49,0.00,,---,0.00,VWS V14.01,2013-01-21 21:02:00,
2013-01-21 15:07:00,71.7,51.5,30.13,WSW,249,0.0,6.0,49,0.00,,---,0.00,VWS V14.01,2013-01-21 21:07:00,
2013-01-21 15:12:00,72.3,52.1,30.13,SW,221,2.0,6.0,49,0.00,,---,0.00,VWS V14.01,2013-01-21 21:12:00,
2013-01-21 15:17:00,72.2,52.0,30.13,ESE,121,4.0,6.0,49,0.00,,---,0.00,VWS V14.01,2013-01-21 21:17:00,
2013-01-21 15:22:00,72.8,52.0,30.13,SW,215,3.0,6.0,48,0.00,,---,0.00,VWS V14.01,2013-01-21 21:22:00,
2013-01-21 15:27:00,73.2,52.4,30.13,ESE,103,2.0,6.0,48,0.00,,---,0.00,VWS V14.01,2013-01-21 21:27:00,
2013-01-21 15:32:00,73.1,52.3,30.13,SSW,195,2.0,6.0,48,0.00,,---,0.00,VWS V14.01,2013-01-21 21:32:00,
2013-01-21 15:37:00,73.2,51.8,30.12,SSW,202,3.0,6.0,47,0.00,,---,0.00,VWS V14.01,2013-01-21 21:37:00,
2013-01-21 15:42:00,73.1,51.7,30.12,South,186,8.0,8.0,47,0.00,,---,0.00,VWS V14.01,2013-01-21 21:42:00,
2013-01-21 15:47:00,72.8,52.0,30.12,SSW,205,2.0,8.0,48,0.00,,---,0.00,VWS V14.01,2013-01-21 21:47:00,
2013-01-21 15:52:00,72.0,51.3,30.12,SSE,166,1.0,8.0,48,0.00,,---,0.00,VWS V14.01,2013-01-21 21:52:00,
2013-01-21 15:57:00,71.7,51.0,30.12,ENE,70,2.0,8.0,48,0.00,,---,0.00,VWS V14.01,2013-01-21 21:57:00,
2013-01-21 16:02:00,70.9,49.7,30.12,East,98,0.0,2.0,47,0.00,,---,0.00,VWS V14.01,2013-01-21 22:02:00,
2013-01-21 16:07:00,70.7,50.6,30.12,NNE,13,1.0,2.0,49,0.00,,---,0.00,VWS V14.01,2013-01-21 22:07:00,
2013-01-21 16:12:00,71.4,51.8,30.12,East,94,4.0,5.0,50,0.00,,---,0.00,VWS V14.01,2013-01-21 22:12:00,
2013-01-21 16:17:00,72.1,51.9,30.12,South,169,1.0,5.0,49,0.00,,---,0.00,VWS V14.01,2013-01-21 22:17:00,
2013-01-21 16:22:00,72.7,51.9,30.12,ENE,63,3.0,5.0,48,0.00,,---,0.00,VWS V14.01,2013-01-21 22:22:00,
2013-01-21 16:27:00,72.3,51.5,30.12,NNW,345,1.0,5.0,48,0.00,,---,0.00,VWS V14.01,2013-01-21 22:27:00,
2013-01-21 16:32:00,72.2,52.0,30.12,SE,129,1.0,5.0,49,0.00,,---,0.00,VWS V14.01,2013-01-21 22:32:00,
2013-01-21 16:37:00,72.5,51.7,30.12,ENE,65,2.0,5.0,48,0.00,,---,0.00,VWS V14.01,2013-01-21 22:37:00,
2013-01-21 16:42:00,72.3,51.0,30.12,East,97,1.0,6.0,47,0.00,,---,0.00,VWS V14.01,2013-01-21 22:42:00,
2013-01-21 16:47:00,72.2,50.3,30.13,NE,53,3.0,6.0,46,0.00,,---,0.00,VWS V14.01,2013-01-21 22:47:00,
2013-01-21 16:52:00,71.9,51.7,30.12,ENE,74,5.0,6.0,49,0.00,,---,0.00,VWS V14.01,2013-01-21 22:52:00,
2013-01-21 16:57:00,71.6,51.5,30.12,East,89,2.0,7.0,49,0.00,,---,0.00,VWS V14.01,2013-01-21 22:57:00,
2013-01-21 17:02:00,71.3,51.7,30.13,ESE,112,4.0,5.0,50,0.00,,---,0.00,VWS V14.01,2013-01-21 23:02:00,
2013-01-21 17:07:00,70.8,50.7,30.13,ESE,105,4.0,6.0,49,0.00,,---,0.00,VWS V14.01,2013-01-21 23:07:00,
2013-01-21 17:12:00,70.4,50.9,30.12,SE,142,2.0,6.0,50,0.00,,---,0.00,VWS V14.01,2013-01-21 23:12:00,
2013-01-21 17:17:00,69.9,51.0,30.13,ESE,115,3.0,6.0,51,0.00,,---,0.00,VWS V14.01,2013-01-21 23:17:00,
2013-01-21 17:22:00,69.2,50.8,30.12,East,83,1.0,6.0,52,0.00,,---,0.00,VWS V14.01,2013-01-21 23:22:00,
2013-01-21 17:27:00,68.8,51.0,30.13,SE,125,1.0,6.0,53,0.00,,---,0.00,VWS V14.01,2013-01-21 23:27:00,
2013-01-21 17:32:00,68.5,51.2,30.13,East,94,1.0,2.0,54,0.00,,---,0.00,VWS V14.01,2013-01-21 23:32:00,
2013-01-21 17:37:00,68.2,50.9,30.12,East,91,1.0,2.0,54,0.00,,---,0.00,VWS V14.01,2013-01-21 23:37:00,
2013-01-21 17:42:00,67.8,50.6,30.13,ESE,110,0.0,2.0,54,0.00,,---,0.00,VWS V14.01,2013-01-21 23:42:00,
2013-01-21 17:47:00,67.4,50.7,30.13,East,94,0.0,2.0,55,0.00,,---,0.00,VWS V14.01,2013-01-21 23:47:00,
2013-01-21 17:52:00,66.9,50.2,30.13,East,93,1.0,2.0,55,0.00,,---,0.00,VWS V14.01,2013-01-21 23:52:00,
2013-01-21 17:57:00,66.3,50.2,30.13,East,94,0.0,2.0,56,0.00,,---,0.00,VWS V14.01,2013-01-21 23:57:00,
2013-01-21 18:02:00,65.7,50.1,30.13,East,94,0.0,0.0,57,0.00,,---,0.00,VWS V14.01,2013-01-22 00:02:00,
2013-01-21 18:07:00,65.3,50.2,30.13,East,94,0.0,1.0,58,0.00,,---,0.00,VWS V14.01,2013-01-22 00:07:00,
2013-01-21 18:12:00,64.9,50.2,30.13,East,100,1.0,1.0,59,0.00,,---,0.00,VWS V14.01,2013-01-22 00:12:00,
2013-01-21 18:17:00,64.7,50.1,30.13,ESE,120,0.0,1.0,59,0.00,,---,0.00,VWS V14.01,2013-01-22 00:17:00,
2013-01-21 18:22:00,64.5,49.9,30.13,ESE,120,0.0,1.0,59,0.00,,---,0.00,VWS V14.01,2013-01-22 00:22:00,
2013-01-21 18:27:00,64.3,49.7,30.14,ESE,109,0.0,1.0,59,0.00,,---,0.00,VWS V14.01,2013-01-22 00:27:00,
2013-01-21 18:32:00,64.0,49.8,30.14,ESE,105,0.0,1.0,60,0.00,,---,0.00,VWS V14.01,2013-01-22 00:32:00,
2013-01-21 18:37:00,63.7,49.6,30.14,ESE,109,0.0,1.0,60,0.00,,---,0.00,VWS V14.01,2013-01-22 00:37:00,
2013-01-21 18:42:00,63.5,49.4,30.14,ESE,109,0.0,1.0,60,0.00,,---,0.00,VWS V14.01,2013-01-22 00:42:00,
2013-01-21 18:47:00,63.5,49.4,30.14,East,99,0.0,1.0,60,0.00,,---,0.00,VWS V14.01,2013-01-22 00:47:00,
2013-01-21 18:52:00,63.5,49.4,30.14,East,98,0.0,1.0,60,0.00,,---,0.00,VWS V14.01,2013-01-22 00:52:00,
2013-01-21 18:57:00,63.3,49.2,30.14,East,96,0.0,1.0,60,0.00,,---,0.00,VWS V14.01,2013-01-22 00:57:00,
2013-01-21 19:02:00,63.0,48.9,30.14,East,96,0.0,1.0,60,0.00,,---,0.00,VWS V14.01,2013-01-22 01:02:00,
2013-01-21 19:07:00,62.9,49.3,30.14,East,96,0.0,1.0,61,0.00,,---,0.00,VWS V14.01,2013-01-22 01:07:00,
2013-01-21 19:12:00,62.6,49.0,30.14,East,96,0.0,1.0,61,0.00,,---,0.00,VWS V14.01,2013-01-22 01:12:00,
2013-01-21 19:17:00,62.2,48.6,30.14,East,96,0.0,1.0,61,0.00,,---,0.00,VWS V14.01,2013-01-22 01:17:00,
2013-01-21 19:22:00,61.9,48.8,30.14,East,96,0.0,1.0,62,0.00,,---,0.00,VWS V14.01,2013-01-22 01:22:00,
2013-01-21 19:27:00,61.8,48.7,30.14,East,96,0.0,1.0,62,0.00,,---,0.00,VWS V14.01,2013-01-22 01:27:00,
2013-01-21 19:32:00,61.9,48.8,30.14,East,88,0.0,1.0,62,0.00,,---,0.00,VWS V14.01,2013-01-22 01:32:00,
2013-01-21 19:37:00,61.9,48.3,30.14,East,86,1.0,1.0,61,0.00,,---,0.00,VWS V14.01,2013-01-22 01:37:00,
2013-01-21 19:42:00,61.8,48.2,30.14,East,86,0.0,1.0,61,0.00,,---,0.00,VWS V14.01,2013-01-22 01:42:00,
2013-01-21 19:47:00,61.5,48.4,30.15,East,86,0.0,1.0,62,0.00,,---,0.00,VWS V14.01,2013-01-22 01:47:00,
2013-01-21 19:52:00,61.1,48.4,30.15,East,86,0.0,1.0,63,0.00,,---,0.00,VWS V14.01,2013-01-22 01:52:00,
2013-01-21 19:57:00,60.8,48.1,30.15,East,86,0.0,1.0,63,0.00,,---,0.00,VWS V14.01,2013-01-22 01:57:00,
2013-01-21 20:02:00,60.6,48.4,30.15,East,86,0.0,0.0,64,0.00,,---,0.00,VWS V14.01,2013-01-22 02:02:00,
2013-01-21 20:07:00,60.7,48.5,30.15,East,79,1.0,1.0,64,0.00,,---,0.00,VWS V14.01,2013-01-22 02:07:00,
2013-01-21 20:12:00,60.9,49.1,30.15,NW,320,1.0,3.0,65,0.00,,---,0.00,VWS V14.01,2013-01-22 02:12:00,
2013-01-21 20:17:00,60.3,48.9,30.15,NNE,13,2.0,3.0,66,0.00,,---,0.00,VWS V14.01,2013-01-22 02:17:00,
2013-01-21 20:22:00,59.7,49.1,30.15,NNE,13,0.0,3.0,68,0.00,,---,0.00,VWS V14.01,2013-01-22 02:22:00,
2013-01-21 20:27:00,59.1,49.0,30.15,North,10,2.0,3.0,69,0.00,,---,0.00,VWS V14.01,2013-01-22 02:27:00,
2013-01-21 20:32:00,59.2,49.0,30.15,NE,41,2.0,2.0,69,0.00,,---,0.00,VWS V14.01,2013-01-22 02:32:00,
2013-01-21 20:37:00,59.6,48.6,30.15,NE,44,2.0,3.0,67,0.00,,---,0.00,VWS V14.01,2013-01-22 02:37:00,
2013-01-21 20:42:00,59.8,48.8,30.15,NE,44,1.0,3.0,67,0.00,,---,0.00,VWS V14.01,2013-01-22 02:42:00,
2013-01-21 20:47:00,59.8,48.4,30.16,NE,44,1.0,3.0,66,0.00,,---,0.00,VWS V14.01,2013-01-22 02:47:00,
2013-01-21 20:52:00,59.8,48.4,30.16,NE,46,1.0,3.0,66,0.00,,---,0.00,VWS V14.01,2013-01-22 02:52:00,
2013-01-21 20:57:00,59.9,48.5,30.16,NE,42,1.0,3.0,66,0.00,,---,0.00,VWS V14.01,2013-01-22 02:57:00,
2013-01-21 21:02:00,59.6,48.6,30.16,NE,39,2.0,2.0,67,0.00,,---,0.00,VWS V14.01,2013-01-22 03:02:00,
2013-01-21 21:07:00,59.5,48.5,30.16,NNE,25,2.0,2.0,67,0.00,,---,0.00,VWS V14.01,2013-01-22 03:07:00,
2013-01-21 21:12:00,59.2,48.7,30.16,North,11,2.0,2.0,68,0.00,,---,0.00,VWS V14.01,2013-01-22 03:12:00,
2013-01-21 21:17:00,59.0,48.5,30.16,NNE,27,2.0,3.0,68,0.00,,---,0.00,VWS V14.01,2013-01-22 03:17:00,
2013-01-21 21:22:00,58.9,48.4,30.16,NNE,15,1.0,3.0,68,0.00,,---,0.00,VWS V14.01,2013-01-22 03:22:00,
2013-01-21 21:27:00,59.1,48.6,30.16,NE,49,1.0,4.0,68,0.00,,---,0.00,VWS V14.01,2013-01-22 03:27:00,
2013-01-21 21:31:00,59.1,48.2,30.16,NE,46,2.0,2.0,67,0.00,,---,0.00,VWS V14.01,2013-01-22 03:31:00,
2013-01-21 21:36:00,59.0,48.5,30.17,NE,46,1.0,2.0,68,0.00,,---,0.00,VWS V14.01,2013-01-22 03:36:00,
2013-01-21 21:41:00,58.9,48.4,30.17,NE,54,1.0,2.0,68,0.00,,---,0.00,VWS V14.01,2013-01-22 03:41:00,
2013-01-21 21:46:00,58.8,48.3,30.17,NE,36,1.0,2.0,68,0.00,,---,0.00,VWS V14.01,2013-01-22 03:46:00,
2013-01-21 21:51:00,58.6,48.1,30.17,NE,41,1.0,2.0,68,0.00,,---,0.00,VWS V14.01,2013-01-22 03:51:00,
2013-01-21 21:56:00,58.3,48.2,30.17,NNE,23,3.0,3.0,69,0.00,,---,0.00,VWS V14.01,2013-01-22 03:56:00,
2013-01-21 22:01:00,57.7,48.4,30.18,NE,46,3.0,6.0,71,0.00,,---,0.00,VWS V14.01,2013-01-22 04:01:00,
2013-01-21 22:06:00,57.1,48.2,30.18,North,349,4.0,6.0,72,0.00,,---,0.00,VWS V14.01,2013-01-22 04:06:00,
2013-01-21 22:11:00,56.9,48.0,30.18,NNE,20,3.0,7.0,72,0.00,,---,0.00,VWS V14.01,2013-01-22 04:11:00,
2013-01-21 22:16:00,57.0,48.1,30.18,ENE,78,1.0,7.0,72,0.00,,---,0.00,VWS V14.01,2013-01-22 04:16:00,
2013-01-21 22:21:00,56.6,48.1,30.18,NE,50,2.0,7.0,73,0.00,,---,0.00,VWS V14.01,2013-01-22 04:21:00,
2013-01-21 22:26:00,56.3,48.1,30.18,NE,39,3.0,7.0,74,0.00,,---,0.00,VWS V14.01,2013-01-22 04:26:00,
2013-01-21 22:31:00,56.2,47.7,30.18,NNE,30,4.0,6.0,73,0.00,,---,0.00,VWS V14.01,2013-01-22 04:31:00,
2013-01-21 22:36:00,55.9,47.4,30.19,NE,34,4.0,6.0,73,0.00,,---,0.00,VWS V14.01,2013-01-22 04:36:00,
2013-01-21 22:41:00,55.6,47.1,30.19,NE,51,4.0,6.0,73,0.00,,---,0.00,VWS V14.01,2013-01-22 04:41:00,
2013-01-21 22:46:00,55.4,46.9,30.19,NNE,26,4.0,6.0,73,0.00,,---,0.00,VWS V14.01,2013-01-22 04:46:00,
2013-01-21 22:51:00,55.2,46.7,30.19,NNE,12,0.0,6.0,73,0.00,,---,0.00,VWS V14.01,2013-01-22 04:51:00,
2013-01-21 22:56:00,55.0,46.5,30.19,North,5,3.0,6.0,73,0.00,,---,0.00,VWS V14.01,2013-01-22 04:56:00,
2013-01-21 23:00:00,54.9,46.4,30.19,NNE,30,2.0,6.0,73,0.00,,---,0.00,VWS V14.01,2013-01-22 05:00:00,
2013-01-21 23:02:00,54.9,46.4,30.19,NNE,30,2.0,3.0,73,0.00,,---,0.00,VWS V14.01,2013-01-22 05:02:00,
2013-01-21 23:07:00,54.8,46.3,30.19,NE,37,1.0,3.0,73,0.00,,---,0.00,VWS V14.01,2013-01-22 05:07:00,
2013-01-21 23:12:00,54.5,46.0,30.19,NE,49,2.0,3.0,73,0.00,,---,0.00,VWS V14.01,2013-01-22 05:12:00,
2013-01-21 23:17:00,54.3,45.8,30.19,NNE,33,1.0,3.0,73,0.00,,---,0.00,VWS V14.01,2013-01-22 05:17:00,
2013-01-21 23:22:00,54.1,45.7,30.19,NE,54,3.0,5.0,73,0.00,,---,0.00,VWS V14.01,2013-01-22 05:22:00,
2013-01-21 23:27:00,54.0,45.5,30.19,ENE,60,2.0,5.0,73,0.00,,---,0.00,VWS V14.01,2013-01-22 05:27:00,
2013-01-21 23:32:00,53.8,45.7,30.19,NE,51,2.0,5.0,74,0.00,,---,0.00,VWS V14.01,2013-01-22 05:32:00,
2013-01-21 23:37:00,53.6,45.5,30.18,NNE,26,3.0,5.0,74,0.00,,---,0.00,VWS V14.01,2013-01-22 05:37:00,
2013-01-21 23:42:00,53.5,45.4,30.18,NNE,18,2.0,5.0,74,0.00,,---,0.00,VWS V14.01,2013-01-22 05:42:00,
2013-01-21 23:47:00,53.3,45.2,30.19,NE,54,2.0,5.0,74,0.00,,---,0.00,VWS V14.01,2013-01-22 05:47:00,
2013-01-21 23:52:00,53.2,45.1,30.19,NNE,30,4.0,5.0,74,0.00,,---,0.00,VWS V14.01,2013-01-22 05:52:00,
2013-01-21 23:57:00,53.2,45.1,30.19,NNE,28,3.0,5.0,74,0.00,,---,0.00,VWS V14.01,2013-01-22 05:57:00,